1530421200.92,19992,14.13,73376.3,-2.13,-2.51,-2.55,0,*5E
1530421202.2,19993,14.13,73372.3,-2.13,-2.55,-2.51,0,*5F
1530421203.44,19994,14.13,73374.3,-2.13,-2.43,-2.51,0,*5F
1530421204.72,19995,14.13,73374.8,-2.13,-2.51,-2.47,0,*5A
1530421205.97,19996,14.13,73374.5,-2.15,-2.59,-2.47,0,*57
1530421207.22,19997,14.13,73374.5,-2.15,-2.55,-2.47,0,*5A
1530421208.44,19998,14.13,73372.8,-2.15,-2.43,-2.47,0,*52
1530421209.66,19999,14.13,73378.3,-2.13,-2.39,-2.39,0,*51
1530421210.87,20000,14.13,73374.0,-2.13,-2.39,-2.39,0,*52
1530421212.09,20001,14.13,73376.3,-2.13,-2.43,-2.43,0,*53
1530421213.28,20002,14.13,73376.5,-2.15,-2.43,-2.43,0,*56
1530421214.55,20003,14.13,73376.5,-2.13,-2.55,-2.51,0,*55
1530421215.82,20004,14.13,73376.0,-2.13,-2.67,-2.71,0,*51
1530421217.02,20005,14.13,73372.8,-2.15,-2.83,-2.83,0,*51
1530421218.23,20006,14.13,73376.5,-2.13,-2.79,-2.79,0,*54
1530421219.42,20007,14.13,73378.8,-2.15,-2.83,-2.91,0,*50
1530421220.64,20008,14.13,73376.3,-2.13,-2.91,-2.91,0,*5A
1530421221.84,20009,14.13,73376.0,-2.15,-2.99,-2.99,0,*5D
1530421223.06,20010,14.13,73376.8,-2.13,-3.03,-2.95,0,*5D
1530421224.28,20011,14.13,73374.8,-2.13,-3.07,-3.03,0,*56
1530421225.47,20012,14.13,73374.5,-2.15,-3.07,-3.07,0,*57
1530421226.67,20013,14.13,73372.8,-2.15,-3.07,-2.99,0,*50
1530421227.87,20014,14.13,73372.5,-2.15,-3.07,-3.07,0,*51
1530421229.09,20015,14.13,73374.3,-2.17,-3.07,-3.07,0,*52
1530421230.31,20016,14.13,73374.0,-2.17,-3.07,-3.11,0,*56
1530421231.53,20017,14.13,73368.3,-2.17,-2.99,-2.99,0,*50
1530421232.72,20018,14.13,73366.5,-2.19,-3.11,-3.11,0,*51
1530421233.91,20019,14.13,73366.0,-2.19,-3.03,-3.03,0,*50
1530421235.1,20020,14.13,73364.3,-2.19,-3.03,-3.03,0,*5A
1530421236.32,20021,14.13,73370.0,-2.21,-3.03,-3.03,0,*50
1530421237.55,20022,14.13,73366.0,-2.21,-2.99,-2.99,0,*53
1530421238.75,20023,14.13,73368.3,-2.23,-2.99,-2.99,0,*50
1530421239.95,20024,14.13,73362.3,-2.23,-3.03,-3.03,0,*57
1530421241.18,20025,14.13,73364.5,-2.21,-2.95,-2.95,0,*54
1530421242.41,20026,14.13,73360.5,-2.21,-2.99,-2.99,0,*57
1530421243.6,20027,14.13,73358.5,-2.19,-2.99,-2.99,0,*5D
1530421244.83,20028,14.13,73360.5,-2.21,-2.99,-3.03,0,*5B
1530421246.02,20029,14.13,73366.0,-2.23,-3.03,-3.03,0,*5A
1530421247.23,20030,14.06,73356.8,-2.23,-2.99,-2.99,0,*52
1530421248.42,20031,14.13,73360.3,-2.23,-2.91,-2.91,0,*53
1530421249.64,20032,14.13,73360.0,-2.21,-2.83,-2.87,0,*56
1530421250.91,20033,14.13,73356.8,-2.21,-2.75,-2.75,0,*53
1530421252.1,20034,14.13,73356.8,-2.23,-2.91,-2.79,0,*50
1530421253.3,20035,14.13,73358.0,-2.23,-2.79,-2.79,0,*57
1530421254.55,20036,14.13,73358.8,-2.23,-2.67,-2.75,0,*57
1530421255.82,20037,14.13,73352.5,-2.21,-2.71,-2.71,0,*57
1530421257.08,20038,14.13,73358.3,-2.23,-2.75,-2.75,0,*5A
1530421258.32,20039,14.13,73362.0,-2.21,-2.71,-2.79,0,*51
1530421259.6,20040,14.13,73358.5,-2.21,-2.71,-2.71,0,*57
1530421260.87,20041,14.13,73356.8,-2.21,-2.71,-2.75,0,*52
1530421262.12,20042,14.13,73360.8,-2.23,-2.75,-2.75,0,*57
1530421263.4,20043,14.13,73360.8,-2.21,-2.71,-2.75,0,*50
1530421264.59,20044,14.13,73362.0,-2.23,-2.79,-2.79,0,*51
1530421265.82,20045,14.13,73360.8,-2.23,-2.79,-2.75,0,*5C
1530421267.07,20046,14.13,73364.3,-2.23,-2.75,-2.75,0,*53
1530421268.33,20047,14.13,73362.3,-2.23,-2.75,-2.75,0,*52
1530421269.58,20048,14.13,73364.0,-2.23,-2.75,-2.67,0,*5E
1530421270.85,20049,14.13,73366.5,-2.21,-2.63,-2.59,0,*57
1530421272.11,20050,14.13,73364.5,-2.23,-2.75,-2.67,0,*57
1530421273.36,20051,14.13,73366.3,-2.23,-2.75,-2.67,0,*56
1530421274.61,20052,14.13,73366.3,-2.23,-2.63,-2.67,0,*52
1530421275.89,20053,14.13,73366.8,-2.21,-2.59,-2.51,0,*5D
1530421277.16,20054,14.13,73366.5,-2.21,-2.59,-2.51,0,*5A
1530421278.44,20055,14.13,73368.3,-2.21,-2.59,-2.51,0,*5B
1530421279.69,20056,14.13,73366.0,-2.23,-2.59,-2.63,0,*5B
1530421280.96,20057,14.13,73364.0,-2.21,-2.71,-2.59,0,*5B
1530421282.22,20058,14.13,73370.3,-2.23,-2.63,-2.67,0,*58
1530421283.5,20059,14.13,73368.0,-2.21,-2.63,-2.63,0,*5F
1530421284.77,20060,14.13,73368.5,-2.21,-2.59,-2.63,0,*5C
1530421286.05,20061,14.13,73372.8,-2.21,-2.63,-2.63,0,*54
1530421287.3,20062,14.13,73374.5,-2.23,-2.63,-2.75,0,*52
1530421288.57,20063,14.13,73370.8,-2.21,-2.59,-2.59,0,*56
1530421289.85,20064,14.13,73372.3,-2.21,-2.59,-2.51,0,*59
1530421291.12,20065,14.13,73372.5,-2.21,-2.59,-2.47,0,*5F
1530421292.39,20066,14.13,73370.8,-2.21,-2.59,-2.59,0,*53
1530421293.66,20067,14.13,73376.0,-2.21,-2.59,-2.47,0,*5D
1530421294.94,20068,14.13,73376.0,-2.21,-2.59,-2.51,0,*55
1530421296.21,20069,14.13,73374.5,-2.21,-2.51,-2.51,0,*5C
1530421297.5,20070,14.13,73374.3,-2.21,-2.47,-2.51,0,*53
1530421298.78,20071,14.13,73374.0,-2.21,-2.47,-2.51,0,*52
1530421300.06,20072,14.13,73374.0,-2.21,-2.47,-2.47,0,*56
1530421301.33,20073,14.13,73376.5,-2.21,-2.51,-2.51,0,*57
1530421302.58,20074,14.13,73376.8,-2.19,-2.51,-2.51,0,*5B
1530421303.83,20075,14.13,73374.8,-2.19,-2.51,-2.59,0,*52
1530421305.07,20076,14.13,73376.3,-2.19,-2.59,-2.63,0,*50
1530421306.32,20077,14.13,73372.8,-2.19,-2.63,-2.51,0,*59
1530421307.56,20078,14.13,73376.8,-2.19,-2.59,-2.63,0,*5E
1530421308.81,20079,14.13,73376.8,-2.19,-2.63,-2.63,0,*56
1530421310.05,20080,14.13,73376.8,-2.19,-2.59,-2.59,0,*50
1530421311.3,20081,14.13,73378.8,-2.19,-2.71,-2.71,0,*51
1530421312.55,20082,14.13,73378.3,-2.19,-2.63,-2.71,0,*51
1530421313.8,20083,14.13,73380.3,-2.19,-2.63,-2.63,0,*53
1530421315.04,20084,14.13,73382.0,-2.19,-2.59,-2.63,0,*5D
1530421316.28,20085,14.13,73376.3,-2.19,-2.59,-2.63,0,*5C
1530421317.53,20086,14.13,73376.8,-2.19,-2.59,-2.51,0,*5E
1530421318.77,20087,14.13,73378.3,-2.19,-2.59,-2.51,0,*5F
1530421320.02,20088,14.13,73378.5,-2.19,-2.59,-2.51,0,*50
1530421321.27,20089,14.13,73376.3,-2.19,-2.47,-2.51,0,*5E
1530421322.52,20090,14.13,73378.3,-2.19,-2.51,-2.51,0,*51
1530421323.77,20091,14.13,73376.8,-2.19,-2.47,-2.51,0,*57
1530421325.01,20092,14.13,73382.3,-2.19,-2.51,-2.47,0,*54
1530421326.26,20093,14.13,73380.5,-2.17,-2.43,-2.47,0,*58
1530421327.47,20094,14.13,73376.5,-2.17,-2.43,-2.43,0,*5B
1530421328.72,20095,14.13,73376.3,-2.17,-2.43,-2.47,0,*5E
1530421329.93,20096,14.13,73380.0,-2.17,-2.43,-2.35,0,*58
1530421331.15,20097,14.13,73378.5,-2.17,-2.43,-2.43,0,*58
1530421332.36,20098,14.13,73378.8,-2.17,-2.35,-2.35,0,*57
1530421333.58,20099,14.13,73382.0,-2.17,-2.43,-2.35,0,*57
1530421334.83,20100,14.13,73382.0,-2.19,-2.47,-2.47,0,*59
1530421336.05,20101,14.13,73376.3,-2.19,-2.47,-2.39,0,*51
1530421337.3,20102,14.13,73376.0,-2.17,-2.43,-2.47,0,*51
1530421338.57,20103,14.13,73380.0,-2.17,-2.47,-2.47,0,*54
1530421339.78,20104,14.13,73382.3,-2.17,-2.43,-2.43,0,*53
1530421340.98,20105,14.13,73376.5,-2.15,-2.43,-2.43,0,*50
1530421342.17,20106,14.13,73374.5,-2.15,-2.43,-2.43,0,*53
1530421343.36,20107,14.13,73380.3,-2.15,-2.43,-2.43,0,*52
1530421344.56,20108,14.13,73376.3,-2.15,-2.43,-2.35,0,*5C
1530421345.75,20109,14.13,73378.8,-2.15,-2.35,-2.43,0,*5D
1530421346.97,20110,14.13,73378.8,-2.17,-2.35,-2.31,0,*52
1530421348.19,20111,14.13,73380.0,-2.17,-2.35,-2.35,0,*57
1530421349.41,20112,14.13,73382.0,-2.17,-2.43,-2.35,0,*55
1530421350.61,20113,14.13,73380.8,-2.15,-2.31,-2.35,0,*53
1530421351.81,20114,14.13,73382.8,-2.15,-2.35,-2.35,0,*50
1530421353.03,20115,14.13,73382.3,-2.13,-2.31,-2.31,0,*57
1530421354.23,20116,14.13,73382.0,-2.15,-2.43,-2.43,0,*52
1530421355.42,20117,14.13,73380.5,-2.15,-2.43,-2.43,0,*53
1530421356.63,20118,14.13,73382.5,-2.13,-2.39,-2.39,0,*5A
1530421357.83,20119,14.13,73382.3,-2.15,-2.43,-2.43,0,*5D
1530421359.02,20120,14.13,73382.5,-2.15,-2.35,-2.43,0,*56
1530421360.24,20121,14.13,73378.8,-2.13,-2.39,-2.39,0,*50
1530421361.45,20122,14.13,73380.8,-2.13,-2.43,-2.43,0,*53
1530421362.7,20123,14.13,73380.8,-2.15,-2.47,-2.47,0,*54
1530421363.9,20124,14.13,73386.0,-2.15,-2.43,-2.43,0,*53
1530421365.09,20125,14.13,73384.0,-2.15,-2.43,-2.35,0,*53
1530421366.31,20126,14.13,73382.8,-2.13,-2.43,-2.43,0,*57
1530421367.53,20127,14.13,73380.0,-2.13,-2.39,-2.31,0,*5E
1530421368.72,20128,14.13,73384.0,-2.15,-2.43,-2.35,0,*5E
1530421369.92,20129,14.13,73386.3,-2.15,-2.43,-2.31,0,*5B
1530421371.12,20130,14.13,73384.3,-2.15,-2.43,-2.43,0,*56
1530421372.34,20131,14.13,73386.8,-2.15,-2.35,-2.47,0,*52
1530421373.61,20132,14.13,73382.0,-2.13,-2.51,-2.55,0,*56
1530421374.89,20133,14.13,73384.5,-2.13,-2.55,-2.55,0,*53
1530421376.16,20134,14.13,73386.0,-2.13,-2.63,-2.63,0,*54
1530421377.41,20135,14.13,73380.3,-2.15,-2.71,-2.67,0,*54
1530421378.69,20136,14.13,73384.0,-2.13,-2.63,-2.67,0,*52
1530421379.97,20137,14.13,73382.8,-2.13,-2.63,-2.67,0,*53
1530421381.21,20138,14.13,73384.0,-2.15,-2.67,-2.71,0,*59
1530421382.46,20139,14.13,73384.8,-2.15,-2.67,-2.67,0,*5F
1530421383.72,20140,14.13,73382.8,-2.15,-2.71,-2.71,0,*51
1530421384.97,20141,14.13,73382.5,-2.15,-2.71,-2.71,0,*50
1530421386.22,20142,14.13,73382.3,-2.15,-2.67,-2.71,0,*54
1530421387.45,20143,14.13,73384.3,-2.15,-2.79,-2.67,0,*5D
1530421388.69,20144,14.13,73382.3,-2.15,-2.67,-2.71,0,*52
1530421389.92,20145,14.13,73384.0,-2.15,-2.71,-2.83,0,*59
1530421391.17,20146,14.13,73384.8,-2.15,-2.71,-2.71,0,*57
1530421392.44,20147,14.13,73386.0,-2.17,-2.71,-2.71,0,*54
1530421393.67,20148,14.13,73384.8,-2.15,-2.79,-2.71,0,*51
1530421394.89,20149,14.13,73386.0,-2.15,-2.79,-2.71,0,*50
1530421396.17,20150,14.13,73384.3,-2.17,-2.71,-2.67,0,*55
1530421397.44,20151,14.13,73384.5,-2.17,-2.67,-2.71,0,*54
1530421398.71,20152,14.13,73386.0,-2.17,-2.71,-2.71,0,*50
1530421399.95,20153,14.13,73384.5,-2.19,-2.75,-2.75,0,*5F
1530421401.17,20154,14.13,73382.3,-2.19,-2.83,-2.71,0,*55
1530421402.42,20155,14.13,73380.8,-2.19,-2.75,-2.71,0,*5D
1530421403.69,20156,14.13,73378.8,-2.17,-2.71,-2.67,0,*53
1530421404.95,20157,14.13,73380.3,-2.17,-2.59,-2.59,0,*55
1530421406.22,20158,14.13,73380.3,-2.17,-2.55,-2.59,0,*56
1530421407.5,20159,14.13,73382.3,-2.17,-2.47,-2.47,0,*5B
1530421408.77,20160,14.13,73382.8,-2.17,-2.47,-2.47,0,*51
1530421410.02,20161,14.13,73382.8,-2.17,-2.47,-2.43,0,*54
1530421411.24,20162,14.13,73384.5,-2.17,-2.43,-2.31,0,*56
1530421412.46,20163,14.13,73386.0,-2.17,-2.35,-2.31,0,*56
1530421413.68,20164,14.13,73386.0,-2.17,-2.35,-2.31,0,*51
1530421414.88,20165,14.13,73384.0,-2.15,-2.35,-2.31,0,*52
1530421416.08,20166,14.13,73386.8,-2.15,-2.31,-2.35,0,*51
1530421417.28,20167,14.13,73384.3,-2.15,-2.35,-2.35,0,*54
1530421418.48,20168,14.13,73386.3,-2.15,-2.31,-2.31,0,*5B
1530421419.68,20169,14.13,73386.8,-2.15,-2.35,-2.31,0,*5E
1530421420.88,20170,14.13,73386.0,-2.15,-2.35,-2.35,0,*52
1530421422.08,20171,14.13,73384.5,-2.15,-2.35,-2.31,0,*57
1530421423.3,20172,14.13,73388.5,-2.17,-2.31,-2.31,0,*52
1530421424.51,20173,14.13,73388.3,-2.13,-2.27,-2.27,0,*57
1530421425.73,20174,14.13,73386.5,-2.13,-2.27,-2.27,0,*50
1530421426.94,20175,14.13,73386.5,-2.13,-2.27,-2.27,0,*51
1530421428.16,20176,14.13,73386.3,-2.13,-2.19,-2.15,0,*5E
1530421429.38,20177,14.13,73384.0,-2.13,-2.19,-2.19,0,*53
1530421430.59,20178,14.13,73390.0,-2.13,-2.19,-2.19,0,*5C
1530421431.79,20179,14.13,73388.8,-2.15,-2.19,-2.19,0,*5B
1530421433.01,20180,14.13,73384.8,-2.13,-2.19,-2.19,0,*5B
1530421434.25,20181,14.13,73384.5,-2.13,-2.15,-2.11,0,*5E
1530421435.47,20182,14.13,73386.8,-2.13,-2.15,-2.15,0,*59
1530421436.75,20183,14.13,73380.5,-2.11,-2.11,-2.07,0,*5D
1530421437.99,20184,14.13,73384.5,-2.09,-2.11,-2.11,0,*54
1530421439.24,20185,14.13,73386.3,-2.11,-2.15,-2.11,0,*58
1530421440.46,20186,14.13,73384.5,-2.09,-2.15,-2.11,0,*52
1530421441.7,20187,14.13,73384.0,-2.11,-2.15,-2.07,0,*5D
1530421442.98,20188,14.13,73388.0,-2.11,-2.11,-2.11,0,*51
1530421444.2,20189,14.13,73382.8,-2.09,-2.11,-2.15,0,*5D
1530421445.42,20190,14.13,73382.0,-2.09,-2.15,-2.11,0,*55
1530421446.65,20191,14.13,73380.8,-2.09,-2.11,-2.15,0,*54
1530421447.84,20192,14.13,73382.8,-2.09,-2.15,-2.15,0,*53
1530421449.06,20193,14.13,73380.3,-2.09,-2.15,-2.11,0,*56
1530421450.33,20194,14.13,73384.3,-2.07,-2.11,-2.11,0,*5B
1530421451.62,20195,14.13,73378.3,-2.07,-2.11,-2.07,0,*5D
1530421452.9,20196,14.13,73380.3,-2.07,-2.11,-2.11,0,*59
1530421454.18,20197,14.13,73382.5,-2.07,-2.11,-2.07,0,*5F
1530421455.43,20198,14.13,73380.3,-2.05,-2.11,-2.07,0,*52
1530421456.69,20199,14.13,73378.5,-2.05,-2.11,-2.11,0,*54
1530421457.97,20200,14.13,73380.0,-2.07,-2.11,-2.11,0,*55
1530421459.24,20201,14.13,73380.0,-2.07,-2.11,-2.11,0,*54
1530421460.5,20202,14.13,73384.5,-2.05,-2.11,-2.11,0,*55
1530421461.77,20203,14.13,73382.8,-2.07,-2.11,-2.11,0,*56
1530421463.03,20204,14.13,73384.3,-2.05,-2.11,-2.11,0,*53
1530421464.28,20205,14.13,73380.8,-2.05,-2.07,-2.07,0,*52
1530421465.53,20206,14.13,73384.0,-2.05,-2.07,-2.11,0,*56
1530421466.78,20207,14.13,73384.3,-2.01,-2.07,-2.03,0,*50
1530421468.02,20208,14.13,73384.0,-2.01,-2.07,-2.03,0,*5F
1530421469.28,20209,14.13,73382.8,-2.05,-2.07,-2.07,0,*5E
1530421470.52,20210,14.13,73382.5,-2.01,-2.07,-2.03,0,*56
1530421471.77,20211,14.13,73384.3,-2.01,-2.07,-2.07,0,*53
1530421473.02,20212,14.13,73384.3,-2.01,-2.07,-2.03,0,*54
1530421474.27,20213,14.13,73380.5,-2.01,-2.07,-2.07,0,*51
1530421475.52,20214,14.13,73382.0,-2.01,-2.07,-2.07,0,*56
1530421476.76,20215,14.13,73382.3,-2.01,-2.07,-2.03,0,*53
1530421478.04,20216,14.13,73384.0,-1.99,-2.07,-1.99,0,*52
1530421479.31,20217,14.13,73386.8,-1.99,-2.07,-2.03,0,*53
1530421480.56,20218,14.13,73382.5,-2.01,-2.07,-2.03,0,*5E
1530421481.83,20219,14.13,73384.0,-1.99,-2.07,-2.03,0,*5D
1530421483.11,20220,14.13,73382.5,-1.99,-2.07,-2.03,0,*57
1530421484.38,20221,14.13,73384.3,-1.99,-2.07,-2.03,0,*56
1530421485.63,20222,14.13,73384.5,-2.01,-2.07,-2.03,0,*57
1530421486.9,20223,14.13,73384.0,-1.99,-2.07,-2.03,0,*54
1530421488.18,20224,14.13,73380.3,-1.99,-2.07,-2.03,0,*53
1530421489.45,20225,14.13,73380.0,-1.99,-2.07,-2.07,0,*56
1530421490.73,20226,14.13,73382.0,-1.99,-2.07,-2.07,0,*55
1530421492.0,20227,14.13,73382.3,-1.99,-2.07,-2.03,0,*50
1530421493.28,20228,14.13,73380.0,-1.99,-2.03,-2.07,0,*5F
1530421494.55,20229,14.13,73382.8,-1.99,-2.03,-1.99,0,*5A
1530421495.83,20230,14.13,73376.3,-1.99,-2.07,-1.99,0,*56
1530421497.07,20231,14.13,73382.5,-1.97,-1.95,-1.95,0,*5D
1530421498.32,20232,14.13,73378.3,-1.97,-1.99,-1.99,0,*5E
1530421499.56,20233,14.13,73376.3,-1.97,-2.03,-2.03,0,*5F
1530421500.81,20234,14.13,73376.0,-1.97,-1.99,-2.03,0,*58
1530421502.05,20235,14.13,73374.5,-1.97,-2.03,-2.03,0,*59
1530421503.33,20236,14.13,73378.8,-1.95,-1.99,-2.03,0,*58
1530421504.58,20237,14.13,73376.0,-1.97,-1.99,-1.99,0,*5B
1530421505.86,20238,14.13,73384.0,-1.95,-1.99,-2.03,0,*56
1530421507.13,20239,14.13,73380.8,-1.95,-1.99,-1.95,0,*5B
1530421508.41,20240,14.13,73384.5,-1.95,-1.99,-1.99,0,*59
1530421509.68,20241,14.13,73382.8,-1.95,-1.99,-1.95,0,*54
1530421510.91,20242,14.13,73386.3,-1.97,-2.03,-1.95,0,*55
1530421512.18,20243,14.13,73380.3,-1.95,-1.95,-1.99,0,*56
1530421513.45,20244,14.13,73382.0,-1.95,-1.95,-1.95,0,*5D
1530421514.72,20245,14.13,73384.0,-1.95,-1.99,-1.95,0,*50
1530421515.98,20246,14.13,73386.0,-1.95,-1.95,-1.95,0,*5F
1530421517.22,20247,14.13,73384.0,-1.93,-1.91,-1.83,0,*5B
1530421518.49,20248,14.13,73380.3,-1.91,-1.91,-1.83,0,*56
1530421519.76,20249,14.13,73384.5,-1.91,-1.91,-1.83,0,*57
1530421521.01,20250,14.13,73386.5,-1.91,-1.83,-1.79,0,*59
1530421522.26,20251,14.13,73380.5,-1.93,-1.83,-1.83,0,*5F
1530421523.5,20252,14.13,73380.5,-1.93,-1.83,-1.83,0,*5C
1530421524.78,20253,14.13,73380.8,-1.91,-1.83,-1.83,0,*5F
1530421526.05,20254,14.13,73380.3,-1.91,-1.83,-1.83,0,*58
1530421527.24,20255,14.13,73380.0,-1.89,-1.79,-1.79,0,*50
1530421528.52,20256,14.13,73380.3,-1.91,-1.83,-1.83,0,*5A
1530421529.76,20257,14.13,73382.0,-1.91,-1.83,-1.79,0,*5E
1530421530.96,20258,14.13,73384.0,-1.89,-1.79,-1.75,0,*51
1530421532.23,20259,14.13,73384.8,-1.91,-1.83,-1.83,0,*55
1530421533.42,20260,14.13,73380.3,-1.89,-1.79,-1.79,0,*56
1530421534.62,20261,14.13,73380.8,-1.89,-1.79,-1.75,0,*5B
1530421535.83,20262,14.13,73382.5,-1.87,-1.75,-1.75,0,*5A
1530421537.05,20263,14.13,73382.3,-1.87,-1.75,-1.71,0,*5F
1530421538.27,20264,14.13,73382.0,-1.87,-1.75,-1.75,0,*5C
1530421539.48,20265,14.13,73380.0,-1.87,-1.75,-1.75,0,*5D
1530421540.7,20266,14.13,73382.3,-1.87,-1.75,-1.75,0,*5E
1530421541.92,20267,14.13,73382.0,-1.87,-1.71,-1.75,0,*5B
1530421543.14,20268,14.13,73384.5,-1.87,-1.75,-1.75,0,*50
1530421544.35,20269,14.13,73384.3,-1.87,-1.75,-1.75,0,*51
1530421545.6,20270,14.13,73384.5,-1.87,-1.83,-1.75,0,*50
1530421546.82,20271,14.13,73382.5,-1.85,-1.83,-1.75,0,*53
1530421548.04,20272,14.13,73384.8,-1.83,-1.79,-1.71,0,*57
1530421549.26,20273,14.13,73384.3,-1.85,-1.83,-1.75,0,*51
1530421550.49,20274,14.13,73382.8,-1.85,-1.83,-1.71,0,*52
1530421551.71,20275,14.13,73384.3,-1.85,-1.83,-1.75,0,*57
1530421552.9,20276,14.13,73388.8,-1.85,-1.75,-1.71,0,*59
1530421554.14,20277,14.13,73384.5,-1.83,-1.71,-1.71,0,*5A
1530421555.39,20278,14.13,73384.8,-1.83,-1.83,-1.79,0,*50
1530421556.63,20279,14.13,73384.5,-1.85,-1.83,-1.83,0,*52
1530421557.88,20280,14.13,73380.3,-1.85,-1.87,-1.83,0,*50
1530421559.1,20281,14.13,73384.3,-1.81,-1.79,-1.83,0,*54
1530421560.29,20282,14.13,73386.3,-1.81,-1.79,-1.79,0,*52
1530421561.49,20283,14.13,73386.8,-1.81,-1.79,-1.71,0,*5B
1530421562.68,20284,14.13,73388.0,-1.81,-1.79,-1.71,0,*5C
1530421563.92,20285,14.13,73382.5,-1.77,-1.71,-1.71,0,*5C
1530421565.16,20286,14.13,73382.8,-1.81,-1.87,-1.83,0,*52
1530421566.41,20287,14.13,73386.0,-1.81,-1.87,-1.87,0,*57
1530421567.65,20288,14.13,73384.0,-1.81,-1.87,-1.87,0,*58
1530421568.9,20289,14.13,73380.0,-1.81,-1.95,-1.87,0,*5A
1530421570.13,20290,14.13,73386.3,-1.81,-1.95,-1.95,0,*51
1530421571.4,20291,14.13,73380.3,-1.83,-1.99,-1.95,0,*5E
1530421572.69,20292,14.13,73382.0,-1.83,-1.99,-2.07,0,*55
1530421573.96,20293,14.13,73382.5,-1.83,-2.07,-2.11,0,*57
1530421575.21,20294,14.13,73378.5,-1.83,-2.19,-2.11,0,*5F
1530421576.4,20295,14.13,73376.8,-1.85,-2.19,-2.19,0,*50
1530421577.64,20296,14.13,73378.0,-1.83,-2.19,-2.11,0,*5D
1530421578.89,20297,14.13,73380.0,-1.83,-2.19,-2.11,0,*5C
1530421580.11,20298,14.13,73378.0,-1.85,-2.11,-2.15,0,*59
1530421581.39,20299,14.13,73378.8,-1.83,-2.07,-2.07,0,*5A
1530421582.62,20300,14.13,73378.0,-1.85,-2.11,-2.15,0,*59
1530421583.89,20301,14.13,73382.5,-1.83,-2.07,-2.07,0,*5A
1530421585.11,20302,14.13,73382.3,-1.85,-2.15,-2.11,0,*5B
1530421586.39,20303,14.13,73380.8,-1.83,-2.07,-1.99,0,*5C
1530421587.66,20304,14.13,73380.8,-1.83,-1.99,-1.95,0,*53
1530421588.94,20305,14.13,73376.0,-1.83,-1.95,-1.99,0,*52
1530421590.2,20306,14.13,73378.3,-1.83,-1.95,-1.95,0,*5D
1530421591.49,20307,14.13,73374.8,-1.83,-1.99,-1.99,0,*5C
1530421592.75,20308,14.13,73380.3,-1.83,-1.95,-1.95,0,*53
1530421594.02,20309,14.13,73378.8,-1.83,-1.95,-1.95,0,*52
1530421595.28,20310,14.13,73376.8,-1.83,-1.95,-1.95,0,*5A
1530421596.56,20311,14.13,73378.0,-1.83,-1.95,-1.99,0,*57
1530421597.8,20312,14.13,73376.8,-1.85,-1.95,-1.99,0,*52
1530421599.07,20313,14.13,73374.0,-1.83,-1.95,-1.95,0,*59
1530421600.31,20314,14.13,73378.8,-1.85,-1.95,-1.99,0,*54
1530421601.59,20315,14.13,73378.0,-1.83,-1.95,-1.99,0,*53
1530421602.85,20316,14.13,73374.0,-1.83,-1.95,-1.95,0,*5C
1530421604.12,20317,14.13,73378.0,-1.83,-1.99,-1.95,0,*51
1530421605.4,20318,14.13,73384.0,-1.83,-1.95,-1.99,0,*5E
1530421606.67,20319,14.13,73378.0,-1.83,-1.99,-1.95,0,*5F
1530421607.94,20320,14.13,73376.5,-1.83,-1.95,-1.95,0,*59
1530421609.21,20321,14.13,73376.3,-1.83,-1.95,-1.99,0,*54
1530421610.49,20322,14.13,73378.3,-1.83,-1.99,-1.99,0,*5B
1530421611.74,20323,14.13,73378.8,-1.85,-2.03,-2.03,0,*5C
1530421612.99,20324,14.13,73376.5,-1.85,-2.03,-2.03,0,*5B
1530421614.27,20325,14.13,73378.0,-1.83,-1.99,-2.07,0,*58
1530421615.55,20326,14.13,73376.5,-1.83,-2.07,-2.07,0,*5F
1530421616.83,20327,14.13,73376.0,-1.83,-2.07,-1.99,0,*5A
1530421618.08,20328,14.13,73376.5,-1.85,-2.07,-2.07,0,*57
1530421619.35,20329,14.13,73380.3,-1.83,-2.07,-2.07,0,*50
1530421620.64,20330,14.13,73382.0,-1.83,-1.99,-1.99,0,*58
1530421621.91,20331,14.13,73378.3,-1.83,-1.95,-1.99,0,*55
1530421623.19,20332,14.13,73380.8,-1.83,-2.07,-1.99,0,*5E
1530421624.47,20333,14.13,73378.8,-1.83,-1.99,-1.99,0,*5B
1530421625.76,20334,14.13,73378.5,-1.83,-1.99,-1.99,0,*5C
1530421627.03,20335,14.13,73378.0,-1.83,-2.07,-1.95,0,*55
1530421628.3,20336,14.13,73382.5,-1.83,-1.99,-1.95,0,*52
1530421629.58,20337,14.13,73378.8,-1.83,-1.99,-1.99,0,*5F
1530421630.85,20338,14.13,73376.0,-1.83,-1.99,-1.95,0,*5C
1530421632.13,20339,14.13,73382.8,-1.83,-1.99,-1.95,0,*5D
1530421633.41,20340,14.13,73382.8,-1.83,-1.99,-1.99,0,*5F
1530421634.69,20341,14.13,73382.3,-1.83,-2.07,-2.07,0,*5E
1530421635.88,20342,14.13,73380.0,-1.85,-2.15,-2.15,0,*5B
1530421637.1,20343,14.13,73378.5,-1.83,-2.19,-2.19,0,*5C
1530421638.32,20344,14.13,73376.3,-1.83,-2.19,-2.19,0,*5B
1530421639.51,20345,14.13,73372.3,-1.85,-2.27,-2.23,0,*58
1530421640.74,20346,14.13,73370.5,-1.83,-2.23,-2.23,0,*59
1530421641.96,20347,14.13,73368.8,-1.83,-2.35,-2.23,0,*5F
1530421643.19,20348,14.13,73370.5,-1.83,-2.35,-2.31,0,*53
1530421644.41,20349,14.13,73370.0,-1.83,-2.31,-2.35,0,*52
1530421645.6,20350,14.13,73372.3,-1.85,-2.35,-2.27,0,*5B
1530421646.79,20351,14.13,73370.0,-1.85,-2.39,-2.39,0,*59
1530421647.98,20352,14.13,73368.5,-1.85,-2.39,-2.39,0,*5A
1530421649.16,20353,14.13,73368.8,-1.85,-2.39,-2.39,0,*5B
1530421650.36,20354,14.13,73368.8,-1.85,-2.35,-2.35,0,*5C
1530421651.54,20355,14.13,73370.3,-1.85,-2.39,-2.39,0,*5D
1530421652.74,20356,14.13,73370.0,-1.85,-2.35,-2.35,0,*5E
1530421653.92,20357,14.13,73368.8,-1.85,-2.27,-2.27,0,*5F
1530421655.12,20358,14.13,73370.8,-1.85,-2.23,-2.23,0,*50
1530421656.3,20359,14.13,73368.0,-1.85,-2.35,-2.27,0,*52
1530421657.5,20360,14.13,73366.8,-1.85,-2.27,-2.23,0,*5F
1530421658.68,20361,14.13,73368.8,-1.85,-2.27,-2.27,0,*5A
1530421659.9,20362,14.13,73366.0,-1.87,-2.35,-2.27,0,*58
1530421661.11,20363,14.13,73366.5,-1.87,-2.39,-2.27,0,*55
1530421662.32,20364,14.13,73374.3,-1.87,-2.35,-2.35,0,*5D
1530421663.53,20365,14.13,73368.3,-1.87,-2.35,-2.27,0,*5F
1530421664.74,20366,14.13,73370.0,-1.87,-2.27,-2.27,0,*5F
1530421665.96,20367,14.13,73368.5,-1.87,-2.27,-2.27,0,*5E
1530421667.17,20368,14.13,73372.8,-1.87,-2.27,-2.23,0,*55
1530421668.39,20369,14.13,73374.5,-1.87,-2.23,-2.23,0,*50
1530421669.58,20370,14.13,73372.5,-1.89,-2.31,-2.27,0,*51
1530421670.77,20371,14.13,73372.3,-1.89,-2.27,-2.27,0,*57
1530421671.96,20372,14.13,73368.5,-1.89,-2.27,-2.27,0,*54
1530421673.18,20373,14.13,73370.5,-1.87,-2.23,-2.23,0,*5B
1530421674.39,20374,14.13,73368.5,-1.87,-2.23,-2.23,0,*5C
1530421675.6,20375,14.13,73370.8,-1.87,-2.27,-2.27,0,*5D
1530421676.81,20376,14.13,73368.0,-1.87,-2.27,-2.27,0,*5E
1530421678.03,20377,14.13,73370.8,-1.87,-2.35,-2.27,0,*5C
1530421679.24,20378,14.13,73372.0,-1.87,-2.23,-2.23,0,*50
1530421680.46,20379,14.13,73368.3,-1.87,-2.23,-2.23,0,*51
1530421681.68,20380,14.13,73372.5,-1.87,-2.27,-2.23,0,*53
1530421682.9,20381,14.13,73376.5,-1.87,-2.23,-2.23,0,*56
1530421684.09,20382,14.13,73374.3,-1.89,-2.23,-2.23,0,*5B
1530421685.31,20383,14.13,73370.8,-1.87,-2.23,-2.23,0,*54
1530421686.5,20384,14.13,73372.5,-1.89,-2.27,-2.31,0,*5A
1530421687.7,20385,14.13,73378.8,-1.89,-2.31,-2.31,0,*5C
1530421688.9,20386,14.13,73376.5,-1.89,-2.31,-2.27,0,*58
1530421690.11,20387,14.13,73372.8,-1.87,-2.27,-2.23,0,*54
1530421691.33,20388,14.13,73370.5,-1.87,-2.23,-2.23,0,*5F
1530421692.55,20389,14.13,73374.3,-1.87,-2.23,-2.23,0,*5E
1530421693.74,20390,14.13,73372.3,-1.89,-2.27,-2.31,0,*5F
1530421694.93,20391,14.13,73374.5,-1.89,-2.19,-2.27,0,*54
1530421696.12,20392,14.13,73374.8,-1.89,-2.19,-2.27,0,*57
1530421697.31,20393,14.13,73368.5,-1.89,-2.19,-2.19,0,*5B
1530421698.5,20394,14.13,73372.3,-1.89,-2.15,-2.15,0,*5C
1530421699.72,20395,14.13,73372.5,-1.87,-2.15,-2.15,0,*53
1530421700.91,20396,14.13,73366.3,-1.89,-2.19,-2.19,0,*5E
1530421702.1,20397,14.13,73368.3,-1.89,-2.19,-2.19,0,*5F
1530421703.29,20398,14.13,73370.8,-1.89,-2.27,-2.27,0,*50
1530421704.48,20399,14.13,73370.8,-1.89,-2.27,-2.19,0,*5C
1530421705.67,20400,14.13,73370.3,-1.89,-2.27,-2.27,0,*56
1530421706.86,20401,14.13,73370.5,-1.89,-2.31,-2.27,0,*50
1530421708.08,20402,14.13,73368.5,-1.87,-2.23,-2.15,0,*5F
1530421709.27,20403,14.13,73372.3,-1.89,-2.19,-2.19,0,*55
1530421710.49,20404,14.13,73370.0,-1.87,-2.23,-2.23,0,*5C
1530421711.67,20405,14.13,73374.0,-1.89,-2.27,-2.27,0,*53